This is the latest recevied weather packets stored in our database for station/object KO4LFZ. If no packets are shown the sender has not sent any weather packets the latest 10 day(s).
| Time | Temp. | Humidity | Pressure | Rain* | Wind** | Luminosity | Snow |
|---|---|---|---|---|---|---|---|
| 1778173211 | 16.67° C | 51% | 1017.3 hPa | 0 mm | - | 727 W/m² | - |
| 1778172907 | 16.67° C | 46% | 1017.4 hPa | 0 mm | - | 704 W/m² | - |
| 1778172603 | 16.67° C | 48% | 1017.2 hPa | 0 mm | - | 669 W/m² | - |
| 1778172299 | 16.67° C | 46% | 1017.4 hPa | 0 mm | - | 672 W/m² | - |
| 1778171996 | 16.67° C | 47% | 1017.6 hPa | 0 mm | - | 719 W/m² | - |
| 1778171694 | 16.67° C | 48% | 1017.4 hPa | 0 mm | - | 776 W/m² | - |
| 1778171391 | 16.67° C | 49% | 1017.6 hPa | 0 mm | - | 812 W/m² | - |
| 1778171086 | 16.67° C | 50% | 1017.5 hPa | 0 mm | - | 838 W/m² | - |
| 1778170783 | 16.11° C | 51% | 1017.5 hPa | 0 mm | - | 812 W/m² | - |
| 1778170479 | 16.67° C | 49% | 1017.9 hPa | 0 mm | - | 817 W/m² | - |
| 1778170176 | 16.67° C | 49% | 1017.6 hPa | 0 mm | - | 830 W/m² | - |
| 1778169872 | 16.67° C | 50% | 1017.5 hPa | 0 mm | - | 818 W/m² | - |
| 1778169568 | 16.11° C | 52% | 1017.7 hPa | 0 mm | - | 838 W/m² | - |
| 1778169264 | 16.11° C | 52% | 1017.7 hPa | 0 mm | - | 838 W/m² | - |
| 1778168962 | 16.11° C | 53% | 1017.6 hPa | 0 mm | - | 835 W/m² | - |
| 1778168658 | 16.11° C | 51% | 1017.5 hPa | 0 mm | - | 865 W/m² | - |
| 1778168356 | 16.11° C | 53% | 1017.7 hPa | 0 mm | - | 830 W/m² | - |
| 1778168052 | 16.11° C | 52% | 1017.8 hPa | 0 mm | - | 814 W/m² | - |
| 1778167748 | 15.56° C | 53% | 1017.8 hPa | 0 mm | - | 769 W/m² | - |
| 1778167445 | 15.56° C | 53% | 1017.8 hPa | 0 mm | - | 753 W/m² | - |
| 1778167141 | 15.56° C | 53% | 1017.6 hPa | 0 mm | - | 756 W/m² | - |
| 1778166837 | 15.56° C | 56% | 1017.3 hPa | 0 mm | - | 763 W/m² | - |
| 1778166534 | 15.56° C | 53% | 1017.9 hPa | 0 mm | - | 744 W/m² | - |
| 1778166231 | 15.56° C | 55% | 1017.7 hPa | 0 mm | - | 747 W/m² | - |
| 1778165927 | 15° C | 55% | 1017.6 hPa | 0 mm | - | 731 W/m² | - |
* Rain latest hour (hover to see other rain measurements)
** Current wind speed in m/s (hover to see current wind gust speed)